This is the latest recevied weather packets stored in our database for station/object SP1BMW-13. If no packets are shown the sender has not sent any weather packets the latest 1 day(s).
| Time | Temp. | Humidity | Pressure | Rain* | Wind** | Luminosity | Snow |
|---|---|---|---|---|---|---|---|
| 1778026368 | 10° C | 92% | 1007.1 hPa | 0 mm | 0.89 m/s, 341° | 0 W/m² | - |
| 1778026308 | 10° C | 92% | 1007.1 hPa | 0 mm | 0.45 m/s, 17° | 0 W/m² | - |
| 1778026248 | 10° C | 92% | 1006.9 hPa | 0 mm | 0 m/s | 0 W/m² | - |
| 1778026188 | 10° C | 92% | 1007.1 hPa | 0 mm | 1.34 m/s, 319° | 0 W/m² | - |
| 1778026134 | 10° C | 92% | 1006.9 hPa | 0 mm | 0.45 m/s, 45° | 0 W/m² | - |
| 1778026068 | 10° C | 92% | 1007.1 hPa | 0 mm | 0.45 m/s, 343° | 0 W/m² | - |
| 1778026008 | 10° C | 92% | 1007.1 hPa | 0 mm | 0 m/s | 0 W/m² | - |
| 1778025948 | 10° C | 92% | 1007.2 hPa | 0 mm | 0.45 m/s, 347° | 0 W/m² | - |
| 1778025888 | 10.56° C | 92% | 1007.1 hPa | 0 mm | 0.89 m/s, 47° | 0 W/m² | - |
| 1778025827 | 10.56° C | 92% | 1007.1 hPa | 0 mm | 0.45 m/s, 318° | 0 W/m² | - |
| 1778025767 | 10.56° C | 92% | 1007.2 hPa | 0 mm | 0.89 m/s, 33° | 0 W/m² | - |
| 1778025707 | 10.56° C | 92% | 1007.3 hPa | 0 mm | 0.45 m/s, 40° | 0 W/m² | - |
| 1778025650 | 10.56° C | 92% | 1007.1 hPa | 0 mm | 0.45 m/s, 33° | 0 W/m² | - |
| 1778025587 | 10.56° C | 92% | 1007.3 hPa | 0 mm | 0 m/s | 0 W/m² | - |
| 1778025527 | 10.56° C | 92% | 1007.2 hPa | 0 mm | 0.45 m/s, 323° | 0 W/m² | - |
| 1778025476 | 10.56° C | 92% | 1007.2 hPa | 0 mm | 0 m/s | 0 W/m² | - |
| 1778025407 | 10.56° C | 92% | 1007.2 hPa | 0 mm | 0.45 m/s, 53° | 0 W/m² | - |
| 1778025347 | 10.56° C | 92% | 1007.2 hPa | 0 mm | 0.89 m/s, 301° | 0 W/m² | - |
| 1778025287 | 10.56° C | 92% | 1007.1 hPa | 0 mm | 0.45 m/s, 357° | 0 W/m² | - |
| 1778025227 | 10.56° C | 92% | 1007.2 hPa | 0 mm | 0.45 m/s, 46° | 0 W/m² | - |
| 1778025167 | 10.56° C | 92% | 1007.2 hPa | 0 mm | 0.89 m/s, 47° | 0 W/m² | - |
| 1778025107 | 10.56° C | 92% | 1007.3 hPa | 0 mm | 0.45 m/s, 47° | 0 W/m² | - |
| 1778025047 | 10.56° C | 92% | 1007.3 hPa | 0 mm | 0.45 m/s, 348° | 0 W/m² | - |
| 1778024987 | 10.56° C | 92% | 1007.2 hPa | 0 mm | 0.45 m/s, 0° | 0 W/m² | - |
| 1778024927 | 10.56° C | 92% | 1007.3 hPa | 0 mm | 0.45 m/s, 341° | 0 W/m² | - |
* Rain latest hour (hover to see other rain measurements)
** Current wind speed in m/s (hover to see current wind gust speed)